Location: Bienfait
(49.1431°N, 102.8077°W)
Time: 07:09:09
(UTC+00:00)

Envisat - Pass Details

Date: 01 February 2022
Orbit: 764 x 765 km, 98.2° (Epoch: 16 May)

Event Time Altitude Azimuth Distance (km) Brightness Sun altitude
Rises 10:35:13 0° 26° (NNE) 3,243 6.8 -37.0°
Reaches altitude 10° 10:38:10 10° 43° (NE) 2,312 6.1 -36.5°
Maximum altitude 10:41:50 20° 90° (E) 1,732 5.4 -35.9°
Drops below altitude 10° 10:45:29 10° 136° (SE) 2,300 5.7 -35.4°
Sets 10:48:23 0° 153° (SSE) 3,221 6.4 -34.9°
